FW1255 Weather Reports


time (UTC)temp
C
wind
direction
speed
KPH
gust
KPH
rain 1hr
cm
rain 24hr
cm
rain mn
cm
humidity
%
barometer
mb
20260906183033 18 355 3.2 8.0 0.71 4.42 4.42 97 1016.3
20260906181527 18 360 6.4 17.7 0.71 4.39 4.39 97 1017.9
20260906180051 19 360 0.0 12.9 0.46 4.11 4.11 97 1017.1
20260906174524 18 360 14.5 24.1 0.36 3.99 3.99 97 1015.3
20260906173024 18 360 6.4 12.9 0.56 3.68 3.68 97 1017.3
20260906171521 18 360 12.9 24.1 1.70 3.68 3.68 96 1015.2
20260906170020 18 360 3.2 17.7 3.25 3.66 3.66 97 1015.6
20260906164520 18 360 8.0 25.7 3.61 3.61 3.61 96 1016.0
20260906163019 18 360 20.9 43.5 3.07 3.07 3.07 96 1015.7
20260906161519 18 360 27.4 46.7 1.93 1.93 1.93 94 1015.2
20260906160011 22 360 22.5 37.0 0.36 0.36 0.36 96 1015.3
20260906154508 23 360 6.4 17.7 0.00 0.15 0.00 96 1014.8
20260906153006 23 360 6.4 12.9 0.00 0.15 0.00 97 1014.4
20260906151504 23 360 9.7 16.1 0.00 0.15 0.00 97 1014.0
20260906150003 22 360 8.0 17.7 0.00 0.15 0.00 97 1013.9
20260906144503 22 133 4.8 14.5 0.00 0.41 0.00 97 1014.1
20260906143112 22 140 6.4 14.5 0.00 0.41 0.00 98 1014.4
20260906141559 22 154 8.0 14.5 0.00 0.41 0.00 97 1014.5
20260906140059 22 360 8.0 17.7 0.00 0.41 0.00 98 1014.5
20260906134554 22 133 8.0 17.7 0.00 0.97 0.00 98 1014.4
20260906133052 22 134 8.0 17.7 0.00 0.97 0.00 98 1014.2
20260906131549 22 360 6.4 17.7 0.00 0.97 0.00 98 1014.2
20260906130047 22 128 4.8 17.7 0.00 0.97 0.00 98 1014.3
20260906124544 21 360 8.0 14.5 0.00 0.97 0.00 98 1014.3
20260906123041 21 360 6.4 16.1 0.00 0.97 0.00 98 1014.2
20260906121537 21 134 6.4 12.9 0.00 0.97 0.00 98 1014.2
20260906120035 21 360 6.4 14.5 0.00 0.97 0.00 98 1013.9
20260906114534 21 360 8.0 16.1 0.00 0.97 0.00 98 1013.7
20260906113035 21 360 8.0 19.3 0.00 0.97 0.00 97 1013.6
20260906111532 21 360 4.8 17.7 0.00 0.97 0.00 97 1013.5
20260906110032 21 360 6.4 14.5 0.00 0.97 0.00 97 1013.5
20260906104536 21 360 6.4 16.1 0.00 0.97 0.00 97 1013.5
20260906103029 21 360 4.8 14.5 0.00 0.97 0.00 97 1013.6
20260906101528 21 360 6.4 16.1 0.00 0.97 0.00 97 1013.8
20260906100027 22 138 8.0 16.1 0.00 0.97 0.00 97 1013.7
20260906094535 22 360 6.4 16.1 0.00 0.97 0.00 97 1013.7
20260906093034 22 360 4.8 16.1 0.00 0.97 0.00 97 1013.6
20260906091522 22 360 6.4 14.5 0.00 0.97 0.00 97 1013.6
20260906090022 22 360 6.4 14.5 0.00 0.97 0.00 97 1013.4
20260906084532 22 360 4.8 12.9 0.00 0.97 0.00 97 1013.4
20260906083022 22 360 4.8 14.5 0.00 0.97 0.00 97 1013.1
20260906081519 22 360 6.4 12.9 0.00 0.97 0.00 97 1013.1
20260906080027 22 360 4.8 14.5 0.00 0.97 0.00 97 1013.3
20260906074516 22 360 6.4 14.5 0.00 0.97 0.00 97 1013.2
20260906073015 22 360 6.4 14.5 0.00 0.97 0.00 97 1013.0
20260906071512 22 360 4.8 14.5 0.00 0.97 0.00 97 1013.2
20260906070012 22 360 4.8 14.5 0.00 0.97 0.00 97 1013.3
20260906064612 22 360 6.4 16.1 0.00 0.97 0.00 96 1013.3
20260906063010 22 360 6.4 14.5 0.00 0.97 0.00 97 1013.5
20260906061507 22 360 6.4 14.5 0.00 0.97 0.00 97 1013.4
20260906060008 22 360 4.8 12.9 0.00 0.97 0.00 96 1013.3
20260906054507 22 360 4.8 12.9 0.00 0.97 0.00 96 1013.3
20260906053004 22 360 3.2 6.4 0.00 0.97 0.00 96 1013.1
20260906051501 22 360 1.6 8.0 0.00 0.97 0.00 95 1013.2
20260906050057 23 360 1.6 8.0 0.00 0.97 0.00 95 1013.2
20260906044556 23 360 3.2 9.7 0.00 0.97 0.97 95 1013.3
20260906043056 23 360 3.2 8.0 0.00 0.97 0.97 95 1013.3
20260906041557 23 111 3.2 9.7 0.00 0.97 0.97 95 1013.1
20260906040055 23 360 1.6 6.4 0.00 0.97 0.97 95 1013.0
20260906034555 23 360 3.2 8.0 0.00 0.97 0.97 94 1012.9
20260906033054 23 360 1.6 12.9 0.00 0.97 0.97 94 1012.9
20260906031554 24 360 6.4 12.9 0.00 0.97 0.97 94 1013.1
20260906030053 24 360 4.8 14.5 0.00 0.97 0.97 94 1013.1
20260906024602 24 360 3.2 12.9 0.00 0.97 0.97 93 1013.0
20260906023052 24 360 6.4 14.5 0.00 0.97 0.97 93 1013.0
20260906021551 23 360 4.8 9.7 0.00 0.97 0.97 92 1012.7
20260906020051 24 360 3.2 8.0 0.00 0.97 0.97 91 1012.8
20260906014602 25 360 1.6 9.7 0.00 0.97 0.97 90 1012.6
20260906013049 25 360 1.6 9.7 0.00 0.97 0.97 90 1012.5
20260906011548 25 360 0.0 9.7 0.00 0.97 0.97 90 1012.3
20260906010047 25 360 3.2 6.4 0.00 0.97 0.97 89 1012.2
20260906004547 25 360 0.0 4.8 0.00 0.97 0.97 88 1012.0
20260906003102 25 360 1.6 6.4 0.00 0.97 0.97 87 1012.1
20260906001548 26 360 3.2 8.0 0.00 0.97 0.97 86 1012.1
20260906000045 26 360 3.2 9.7 0.00 0.97 0.97 85 1012.3
20260905234544 26 360 3.2 14.5 0.00 0.97 0.97 84 1012.2
20260905233044 27 360 8.0 17.7 0.00 0.97 0.97 82 1012.0
20260905231544 27 360 6.4 19.3 0.00 0.97 0.97 81 1011.9
20260905230042 27 360 8.0 14.5 0.00 0.97 0.97 79 1012.0
20260905224542 27 360 8.0 17.7 0.00 0.97 0.97 78 1011.9
20260905223042 27 360 9.7 19.3 0.00 0.97 0.97 78 1011.8
20260905221544 27 360 11.3 19.3 0.00 0.97 0.97 77 1011.7
20260905220044 27 360 11.3 17.7 0.00 0.97 0.97 78 1011.5
20260905214539 27 360 11.3 25.7 0.00 0.97 0.97 75 1011.3
20260905213041 27 360 9.7 19.3 0.00 0.97 0.97 78 1011.3
20260905211542 27 360 9.7 19.3 0.00 0.97 0.97 78 1011.2
20260905210037 27 360 8.0 17.7 0.00 0.97 0.97 80 1011.0
20260905204641 27 360 9.7 17.7 0.00 0.97 0.97 78 1011.1
20260905203036 27 360 9.7 17.7 0.00 0.97 0.97 78 1011.1
20260905201540 27 360 9.7 16.1 0.00 0.97 0.97 77 1011.0
20260905200045 27 360 4.8 14.5 0.00 0.97 0.97 75 1010.9
20260905194541 27 360 8.0 17.7 0.00 0.97 0.97 75 1010.9
20260905193034 27 360 8.0 19.3 0.00 0.97 0.97 82 1011.1
20260905191533 28 360 8.0 16.1 0.00 0.97 0.97 74 1010.9
20260905190034 27 360 1.6 8.0 0.00 0.97 0.97 77 1011.0
20260905184523 26 116 3.2 6.4 0.00 0.97 0.97 80 1011.0